Greensboro, NC

5:32 AM EDT on May 25, 2018 (GMT -0400)
Piedmont Triad International

Weather History for KGSO - December, 2013

Change the Weather History Date:

Tuesday, December 24, 2013

  Actual Average Record
Temperature  
Mean Temperature 36 °F 40 °F  
Max Temperature 45 °F 49 °F 72 °F (2015)
Min Temperature 26 °F 31 °F 4 °F (1983)
Degree Days  
Heating Degree Days 29 25  
Month to date heating degree days 456 553  
Since 1 July heating degree days 1190 1233  
Cooling Degree Days 0 0  
Month to date cooling degree days 8 0  
Year to date cooling degree days 1389 1483  
Moisture  
Dew Point 19 °F    
Average Humidity 50    
Maximum Humidity 69    
Minimum Humidity 30    
Precipitation  
Precipitation 0.00 in 0.10 in 1.19 in (1986)
Month to date precipitation 4.03 2.34  
Year to date precipitation 49.27 41.56  
Snow  
Snow 0.00 in 0.00 in 2.60 in (1966)
Month to date snowfall 0.0 0.4  
Since 1 July snowfall T 0.5  
Snow Depth 0.00 in    
Sea Level Pressure  
Sea Level Pressure 30.29 in    
Wind  
Wind Speed 8 mph (North)    
Max Wind Speed 22 mph    
Max Gust Speed 28 mph    
Visibility 10 miles    
Events      
T = Trace of Precipitation, MM = Missing Value Source: NWS Daily Summary

Daily Weather History Graph

Daily Weather History Graph

Search for Another Location

Airport or City:

Astronomy

Dec. 24, 2013 Rise Set
Actual Time 7:28 AM EST 5:10 PM EST
Civil Twilight 6:59 AM EST 5:39 PM EST
Nautical Twilight 6:27 AM EST 6:11 PM EST
Astronomical Twilight 5:56 AM EST 6:42 PM EST
Moon No Moon Rise 11:33 AM EST (12/24)
Length of Visible Light 10h 39m
Length of Day
9h 42m
Waning Gibbous, 59% of the Moon is Illuminated
Dec 24
Waning Gibbous
Dec 25
Last Quarter
Jan 1
New
Jan 7
First Quarter
Jan 15
Full

Hourly Weather History & Observations

Time (EST) Temp. Windchill Dew Point Humidity Pressure Visibility Wind Dir Wind Speed Gust Speed Precip Events Conditions
12:54 AM 39.9 °F 35.8 °F 28.0 °F 63% 30.16 in 10.0 mi NNE 5.8 mph - N/A   Mostly Cloudy
1:54 AM 39.0 °F 34.0 °F 26.1 °F 60% 30.17 in 10.0 mi North 6.9 mph - N/A   Overcast
2:54 AM 39.0 °F 35.7 °F 26.1 °F 60% 30.17 in 10.0 mi North 4.6 mph - N/A   Overcast
3:54 AM 37.9 °F 32.1 °F 25.0 °F 60% 30.18 in 10.0 mi North 8.1 mph - N/A   Overcast
4:54 AM 37.0 °F 31.6 °F 25.0 °F 62% 30.18 in 10.0 mi North 6.9 mph - N/A   Overcast
5:54 AM 37.0 °F 32.4 °F 24.1 °F 59% 30.19 in 10.0 mi North 5.8 mph - N/A   Overcast
6:54 AM 34.0 °F 26.6 °F 23.0 °F 64% 30.22 in 10.0 mi North 9.2 mph - N/A   Scattered Clouds
7:54 AM 34.0 °F 29.8 °F 24.1 °F 67% 30.25 in 10.0 mi North 4.6 mph - N/A   Mostly Cloudy
8:54 AM 36.0 °F 32.1 °F 24.1 °F 62% 30.26 in 10.0 mi NNE 4.6 mph - N/A   Partly Cloudy
9:54 AM 37.9 °F 33.5 °F 24.1 °F 57% 30.28 in 10.0 mi NNW 5.8 mph - N/A   Partly Cloudy
10:54 AM 39.9 °F 33.4 °F 25.0 °F 55% 30.29 in 10.0 mi NW 10.4 mph - N/A   Partly Cloudy
11:54 AM 41.0 °F 35.2 °F 24.1 °F 51% 30.27 in 10.0 mi NW 9.2 mph - N/A   Partly Cloudy
12:54 PM 43.0 °F 36.0 °F 21.9 °F 43% 30.26 in 10.0 mi NNW 13.8 mph 26.5 mph N/A   Scattered Clouds
1:54 PM 42.1 °F 35.2 °F 19.9 °F 41% 30.26 in 10.0 mi NW 12.7 mph 20.7 mph N/A   Scattered Clouds
2:54 PM 44.1 °F 38.1 °F 18.0 °F 35% 30.27 in 10.0 mi NW 11.5 mph - N/A   Partly Cloudy
3:54 PM 42.1 °F 33.3 °F 14.0 °F 32% 30.29 in 10.0 mi NW 19.6 mph 26.5 mph N/A   Partly Cloudy
4:54 PM 39.0 °F 31.4 °F 10.9 °F 32% 30.32 in 10.0 mi NNW 12.7 mph 19.6 mph N/A   Clear
5:54 PM 36.0 °F 29.0 °F 14.0 °F 41% 30.35 in 10.0 mi NNW 9.2 mph - N/A   Clear
6:54 PM 34.0 °F 28.0 °F 12.9 °F 42% 30.39 in 10.0 mi NNW 6.9 mph - N/A   Clear
7:54 PM 30.9 °F 24.3 °F 10.9 °F 43% 30.40 in 10.0 mi North 6.9 mph - N/A   Clear
8:54 PM 30.0 °F 25.2 °F 10.9 °F 45% 30.43 in 10.0 mi North 4.6 mph - N/A   Clear
9:54 PM 28.0 °F 20.8 °F 10.9 °F 49% 30.45 in 10.0 mi NNE 6.9 mph - N/A   Clear
10:54 PM 28.0 °F 21.7 °F 10.0 °F 47% 30.46 in 10.0 mi North 5.8 mph - N/A   Clear
11:54 PM 26.1 °F 20.5 °F 10.0 °F 51% 30.46 in 10.0 mi North 4.6 mph - N/A   Clear